Flag for South Africa Weather past 2 weeks in Thabazimbi, South Africa

Now
39 °F

Clear.


Feels Like: 39 °F
Forecast: 42 / 76 °F
Wind: 1 mph from North

Location: Seretse Khama International Airport

Current Time: Aug 2, 2014 at 5:18:19 AM

Latest Report: Aug 2, 2014 at 5:00 AM


Visibility: 10 mi

Pressure: 30.30 "Hg

Humidity: 52%

Dew point: 23 °F

Location of ThabazimbiLocation

Historic Weather in Thabazimbi — Graph

°F

Thabazimbi temperature yesterday

Maximum temperature yesterday: 79 °F (at 3:00 PM)
Minimum temperature yesterday: 41 °F (at 5:00 AM)
Average temperature yesterday: 60 °F

Past Weeks' High & Low Weather Summary

 TemperatureHumidityPressure
High81 °F (Jul 25, 2:00 PM)87% (Jul 30, 7:00 AM)30.57 "Hg (Jul 30, 7:00 AM)
Low30 °F (Jul 20, 7:00 AM)9% (Jul 27, 5:00 PM)30.01 "Hg (Jul 18, 3:00 PM)
Average57 °F39%30.29 "Hg
* Reported Jul 18 4:00 AM — Aug 2 4:00 AM, Thabazimbi, Weather by CustomWeather, © 2014

Note: Actual official high and low records may vary slightly from our data, if they occured in-between our weather recording intervals... More about our weather records

Advertising

Thabazimbi weather history for previous 24 hours

 ConditionsComfort  
Time TempWeatherWind HumidityBarometerVisibility
4:00 AM
Aug 2
41 °FClear.1 mph53%30.30 "Hg10 mi
2:00 AM46 °FClear.7 mph37%30.27 "Hg10 mi
1:00 AM46 °FClear.6 mph37%30.27 "Hg10 mi
12:00 AM48 °FClear.1 mph37%30.27 "Hg10 mi
11:00 PM
Aug 1
52 °FClear.5 mph30%30.27 "Hg10 mi
10:00 PM55 °FClear.5 mph26%30.27 "Hg10 mi
9:00 PM57 °FClear.2 mph23%30.27 "Hg10 mi
8:00 PM59 °FPassing clouds.5 mph23%30.24 "HgN/A
7:00 PM64 °FClear.3 mph19%30.24 "Hg10 mi
6:00 PM73 °FClear.3 mph14%30.21 "Hg10 mi
5:00 PM77 °FClear.10 mph11%30.21 "Hg10 mi
4:00 PM77 °FPassing clouds.10 mph13%30.21 "HgN/A
3:00 PM79 °FPassing clouds.8 mph12%30.21 "HgN/A
2:00 PM77 °FPassing clouds.5 mph14%30.24 "HgN/A
1:00 PM75 °FSunny.5 mph18%30.27 "Hg10 mi
12:00 PM73 °FSunny.3 mph20%30.30 "Hg10 mi
11:00 AM72 °FPassing clouds.5 mph22%30.33 "HgN/A
10:00 AM68 °FSunny.2 mph28%30.36 "Hg10 mi
9:00 AM59 °FPassing clouds.3 mph42%30.33 "HgN/A
8:00 AM48 °FSunny.2 mph58%30.33 "Hg10 mi
7:00 AM41 °FSunny.6 mph70%30.30 "Hg10 mi
6:00 AM41 °FSunny.3 mph70%30.30 "Hg10 mi
5:00 AM41 °FClear.3 mph76%30.27 "Hg10 mi
Weather by CustomWeather, © 2014

See weather overviewHow to use our weather pages